Погода в Кослане

Россия / Республика Коми     63°27′31″N   48°53′48″E
темп.,
°C
ветер,
м/с
пор.,
м/с
влажн.,
%
обл.,
%
осадки,
мм/ч
давл.,
гПа
погр.,
м
4 марта, чт
чт400:00−12зсз129891 0.1 99127
03:00−13с229793 0.2 99233
06:00−17с239898 0.1 99140
09:00−15с239496 0.2 991206
12:00−13ссз238892 0.0 991355
15:00−13ссз249196 0.1 992403
18:00−17ссз249799 0.0 993106
21:00−19ссз229894 0.1 99449
5 марта, пт
пт500:00−21ссз229981 0.0 99424
03:00−22сз229988 0.0 99528
06:00−21ссз229899 0.0 99756
09:00−18ссз139598 0.1 998199
12:00−14ссз2491100 0.1 999459
15:00−14ссз3590100 0.1 1001519
18:00−17ссз269693 0.1 1003183
21:00−18ссз269695 0.2 1005254
6 марта, сб
сб600:00−23сз239870 0.0 100677
03:00−23сз249879 0.1 1007117
06:00−24зсз239887 0.1 1008114
09:00−21сз249689 0.1 1008281
12:00−18зсз2385100 0.0 1008605
15:00−18з2487100 0.1 1007655
18:00−22юз1297100 0.0 100720
21:00−24ююз229980 0.0 100720
7 марта, вс
вс700:00−25ю229931 0.0 100520
03:00−25ююв229936 0.0 100525
06:00−25юв249967 0.0 100476
09:00−21юв369680 0.0 1003227
12:00−15юв369272 0.0 1002315
15:00−14вюв479184 0.0 1002406
18:00−16вюв41094100 0.0 1002351
21:00−18вюв3994100 0.0 1003306
8 марта, пн
пн800:00−19в3995100 0.0 1002264
03:00−20всв41094100 0.0 1003292
06:00−20всв4109298 0.0 1004347
09:00−20всв499194 0.0 1005345
12:00−16св488686 0.0 1007517
15:00−15св478792 0.0 1008615
18:00−20ссв379699 0.0 1010174
21:00−24ссв369658 0.0 1013121